星链-2094 (STARLINK-2094 )

导读 | 豆包AI

STARLINK-2094是美国太空探索技术公司SpaceX星链星座的成员卫星,于北京时间2021年1月20日发射入轨。星链项目旨在通过近地轨道大规模部署卫星,为全球提供高速低延迟的卫星互联网服务,弥补地面网络覆盖盲区。作为星座组网的一部分,该卫星运行于低地轨道,为实现全球连续网络覆盖提供支撑,同时星链也已拓展应用至军事与应急通信领域。

基本信息
目录编号:
47375
目录名称:
STARLINK-2094
国际标识:
2021-005AC
轨道中心:
EARTH
卫星名称:
星链-2094
卫星全名:
星链-2094 (STARLINK-2094 )
卫星状态:
在轨 (已飞行1879 天)
发射日期:
2021-01-20 UTC
国别 :
美国 (US)
星等 :
--
轨道信息
数据来源 国际轨道数据
星历时间: 2026-03-14T08:00:02+0800
13小时前
查看轨道信息
半长轴: 6891.425km
偏心率: 0.0001272
轨道倾角: 53.103°
近地点辐角 85.040°
升交点赤经 42.032°
平近点角 239.279°
近地点: 512.411km
远地点: 514.165km
周期: 94.891分钟
每日圈数: 15.175368
详细信息
固有亮度:
5
最大亮度:
2.5
卫星平台:
Starlink V1.0
覆盖范围:
全球
运营商:
太空探索技术公司
运营商所在国:
美国
制造商(研发单位):
太空探索技术公司
制造商所在国:
美国
使用方式:
暂无
卫星简介
星链(Starlink)计划是由太空探索技术公司(SpaceX)提出的一个巨型低轨卫星互联网星座项目,计划在2019年至2024年间在太空搭建由约1.2万颗卫星组成的“星链”网络,其中1584颗将部署在地球上空550千米处的近地轨道,并从2020年开始工作。该卫星仍在工作。
2D轨道图
3D轨道图
轨道高度分析图
轨道倾角分析图
轨道综合分析图
查看轨道综合分析图